Regional Weather Roundup
Issued by NWS

Home | Current Version | Previous Version | Graphics & Text | Print | Product List | Glossary On
Versions: 1 2 3 4 5 6 7 8 9 10 11 12 13 14 15 16 17 18 19 20 21 22 23 24 25 26 27 28 29 30 31 32 33 34 35 36 37 38 39 40 41 42 43 44 45 46 47 48 49 50
000
ASUS43 KLSX 240007
RWRMO

WEATHER SUMMARY FOR MISSOURI
NATIONAL WEATHER SERVICE SPRINGFIELD MO
600 PM CST FRI FEB 23 2018

NOTE: "FAIR" INDICATES FEW OR NO CLOUDS BELOW 12,000 FEET WITH NO
       SIGNIFICANT WEATHER AND/OR OBSTRUCTIONS TO VISIBILITY.
       CURRENT SKY AND/OR WEATHER CONDITIONS ARE NOT AVAILABLE FOR
       CHILLICOTHE AND FARMINGTON.

MOZ001>031-035>038-043-044-053-054-240100-
...NORTHERN AND WESTERN MISSOURI...

CITY           SKY/WX    TMP DP  RH WIND       PRES   REMARKS
KANSAS CTY INT CLOUDY    34  29  82 E6        30.25R WCI  29
6HR MIN TEMP:  33; 6HR MAX TEMP:  34;

KANSAS C DTWN  CLOUDY    37  29  72 NE6       30.26S
6HR MIN TEMP:  36; 6HR MAX TEMP:  37;

LEE`S SUMMIT   CLOUDY    34  31  88 NE6       30.25F WCI  29
6HR MIN TEMP:  34; 6HR MAX TEMP:  35;

ST JOSEPH      CLOUDY    36  30  79 CALM      30.26F
6HR MIN TEMP:  34; 6HR MAX TEMP:  37;

CHILLICOTHE      N/A     37  29  72 CALM      30.28R
6HR MIN TEMP:  36; 6HR MAX TEMP:  39;

KIRKSVILLE     CLOUDY    36  31  82 NE5       30.25S
6HR MIN TEMP:  35; 6HR MAX TEMP:  39;


$$
MOZ066>068-077>081-088>096-101>105-240100-
...SOUTHWEST MISSOURI...

CITY           SKY/WX    TMP DP  RH WIND       PRES   REMARKS
SPRINGFIELD    LGT RAIN  45  44  97 NE7       30.17F
6HR MIN TEMP:  44; 6HR MAX TEMP:  46; 6HR PCP:  0.11;

JOPLIN         LGT RAIN  41  41 100 VRB5      30.16R FOG
6HR MIN TEMP:  41; 6HR MAX TEMP:  42; 6HR PCP:  0.25;

BRANSON        LGT RAIN  45  45 100 SE10      30.18S VSB 1

$$
MOZ032>034-039>042-045>050-055>058-069>072-240100-
...CENTRAL MISSOURI...

CITY           SKY/WX    TMP DP  RH WIND       PRES   REMARKS
COLUMBIA       CLOUDY    38  35  89 N6        30.26F
6HR MIN TEMP:  37; 6HR MAX TEMP:  38;

JEFFERSON CITY CLOUDY    39  36  89 NE5       30.28S
6HR MIN TEMP:  39; 6HR MAX TEMP:  41;

ROLLA          LGT RAIN  42  41  96 N6        30.23S
6HR MIN TEMP:  42; 6HR MAX TEMP:  45; 6HR PCP: TRACE;

SEDALIA        CLOUDY    38  36  92 NE6       30.26F
6HR MIN TEMP:  37; 6HR MAX TEMP:  39;

WHITEMAN AFB   CLOUDY    36  33  89 NE9       30.20F WCI  29
WARRENSBURG    CLOUDY    36  32  87 N5        30.26F
OSAGE BEACH    CLOUDY    41  39  93 VRB5      30.25R

$$
MOZ051-052-059>065-240100-
...EAST CENTRAL MISSOURI...

CITY           SKY/WX    TMP DP  RH WIND       PRES   REMARKS
ST LOUIS INTL  CLOUDY    45  41  86 CALM      30.27R
6HR MIN TEMP:  44; 6HR MAX TEMP:  50;

SPIRIT OF STL  CLOUDY    45  40  82 N5        30.28R
6HR MIN TEMP:  45; 6HR MAX TEMP:  49;

ST CHARLES       N/A     43  39  86 N6        30.27R
6HR MIN TEMP:  43; 6HR MAX TEMP:  47;


$$
MOZ072>076-082>087-097>100-106>115-240100-
...SOUTH CENTRAL AND SOUTHEAST MISSOURI...

CITY           SKY/WX    TMP DP  RH WIND       PRES   REMARKS
CAPE GIRARDEAU CLOUDY    53  50  89 CALM      30.24F
6HR MIN TEMP:  52; 6HR MAX TEMP:  56; 6HR PCP: TRACE;

FARMINGTON     LGT RAIN  48  46  93 NW3       30.28R
6HR MIN TEMP:  48; 6HR MAX TEMP:  50; 6HR PCP:  0.01;

POPLAR BLUFF   CLOUDY    51  50  96 NE3       30.24F
6HR MIN TEMP:  51; 6HR MAX TEMP:  53; 6HR PCP: TRACE;

WEST PLAINS    LGT RAIN  47  45  93 NE7       30.22F
6HR MIN TEMP:  47; 6HR MAX TEMP:  49; 6HR PCP:  0.13;


$$



USA.gov is the U.S. government's official web portal to all federal, state and local government web resources and services.